Date,TemperatureHighF,TemperatureAvgF,TemperatureLowF,DewpointHighF,DewpointAvgF,DewpointLowF,HumidityHigh,HumidityAvg,HumidityLow,PressureMaxIn,PressureMinIn,WindSpeedMaxMPH,WindSpeedAvgMPH,GustSpeedMaxMPH,PrecipitationSumIn
2013-1-1,42.5,38.1,33.8,41.2,35.3,27.7,100,90,72,30.12,29.96,13,2,14,0.23
2013-1-2,43.2,37.7,35.1,42.1,35.8,33.3,96,93,86,30.13,29.93,21,5,21,0.02
2013-1-3,39.7,34.6,29.5,34.0,31.3,26.2,95,88,76,30.30,30.08,20,7,20,0.00
2013-1-4,38.6,30.5,23.0,27.5,23.9,21.0,92,77,55,30.41,30.30,30,6,30,0.00
2013-1-5,48.7,34.7,22.3,31.4,23.8,18.9,88,67,38,30.43,30.23,14,2,14,0.00
2013-1-6,43.1,38.2,34.9,38.0,34.0,30.8,93,85,75,30.24,30.08,25,6,25,0.01
2013-1-7,52.4,39.0,28.4,32.7,28.0,25.0,88,67,39,30.39,30.23,21,6,21,0.00
2013-1-8,55.5,40.4,26.7,42.8,33.0,23.1,89,76,54,30.43,30.30,18,4,18,0.00
2013-1-9,48.5,43.3,38.2,46.3,41.3,35.8,95,92,88,30.46,30.35,9,1,9,0.00
2013-1-10,65.2,52.9,44.3,54.7,48.3,42.9,95,85,67,30.47,30.23,34,7,34,0.00
2013-1-11,59.1,53.4,48.8,55.3,51.3,46.6,95,93,84,30.25,30.03,29,8,29,0.03
2013-1-12,71.8,60.7,53.2,61.8,56.4,51.8,95,87,67,30.12,29.98,25,6,25,0.00
2013-1-13,71.8,63.1,59.6,58.7,56.3,53.4,92,79,56,30.01,29.90,26,11,26,0.02
2013-1-14,60.6,50.8,43.4,58.3,49.3,42.1,96,95,92,30.16,29.93,31,5,31,1.74
2013-1-15,51.0,46.9,43.5,49.9,45.7,42.2,96,96,95,30.10,29.95,17,3,17,0.76
2013-1-16,56.3,50.6,47.0,54.6,49.3,45.6,96,95,91,29.99,29.88,12,2,13,0.22
2013-1-17,47.0,39.6,31.8,45.8,38.3,30.3,96,95,95,30.24,29.77,29,9,29,1.10
2013-1-18,44.3,33.7,28.0,31.6,28.1,23.1,94,82,44,30.52,30.24,22,5,22,0.01
2013-1-19,54.5,37.7,26.1,33.3,28.3,21.9,94,73,29,30.45,30.16,13,2,13,0.00
2013-1-20,51.7,40.4,28.4,37.6,31.3,25.4,93,71,54,30.17,30.06,21,5,22,0.00
2013-1-21,45.9,35.0,26.2,33.3,24.6,13.6,94,68,42,30.10,29.99,33,6,33,0.00
2013-1-22,28.6,24.0,18.7,14.8,6.0,-1.5,64,47,28,30.29,30.07,35,12,36,0.00
2013-1-23,41.7,30.9,23.0,26.9,14.9,4.1,68,51,42,30.36,30.14,21,7,21,0.00
2013-1-24,43.7,32.8,23.8,33.4,18.3,6.5,80,56,34,30.38,30.03,25,12,0,0.00
2013-1-25,37.5,27.5,22.1,35.9,19.8,5.7,95,74,47,30.40,30.09,20,10,0,0.06
2013-1-26,33.0,30.4,29.6,28.0,27.6,26.6,92,89,81,30.34,30.29,8,2,8,0.01
2013-1-27,44.6,34.1,23.8,32.9,28.5,22.1,99,81,62,30.49,30.34,22,7,22,0.01
2013-1-28,64.7,48.3,34.2,49.1,40.3,31.7,92,75,53,30.41,30.19,21,4,22,0.00
2013-1-29,71.2,55.8,42.0,57.7,49.2,40.1,94,80,50,30.20,29.90,29,6,29,0.00
2013-1-30,64.0,57.3,43.1,59.8,54.3,38.9,95,90,82,29.90,29.39,41,15,43,1.16
2013-1-31,42.5,33.8,29.3,38.6,24.9,21.5,91,70,53,30.00,29.49,38,10,43,0.01
2013-2-1,40.4,23.9,16.7,31.3,16.1,10.0,93,73,55,30.40,29.92,36,11,37,0.00
2013-2-2,36.6,26.8,17.2,31.2,20.4,12.0,94,78,42,30.40,30.06,16,2,17,0.00
2013-2-3,40.9,33.1,28.4,32.5,28.1,22.1,93,82,65,30.10,29.93,31,9,32,0.08
2013-2-4,51.9,35.0,23.6,30.8,24.3,19.7,88,67,38,30.14,29.96,18,4,18,0.00
2013-2-5,52.9,41.0,33.0,41.2,33.5,27.9,92,75,54,29.99,29.90,19,3,19,0.00
2013-2-6,55.1,44.2,34.8,37.7,30.1,22.5,88,61,33,30.20,29.99,20,6,20,0.00
2013-2-7,45.9,39.8,34.2,39.3,32.8,26.0,94,77,57,30.20,29.96,19,3,19,0.39
2013-2-8,49.9,40.5,33.4,44.9,37.0,28.2,100,87,64,30.16,29.89,33,8,33,0.02
2013-2-9,53.7,39.5,28.2,28.8,24.8,18.0,86,61,25,30.32,30.15,23,5,23,0.00
2013-2-10,50.6,43.2,35.1,44.4,29.4,22.0,93,61,37,30.32,30.05,42,13,42,0.24
2013-2-11,55.0,50.5,45.3,51.3,44.9,33.0,94,82,61,30.07,29.95,37,7,38,0.02
2013-2-12,50.5,43.6,36.5,37.8,30.9,26.5,93,63,40,30.11,29.87,18,4,18,0.07
2013-2-13,51.4,40.3,34.7,44.4,37.2,31.3,94,89,71,29.90,29.60,31,10,34,0.06
2013-2-14,50.9,40.1,32.6,32.4,29.5,26.7,88,67,43,30.04,29.90,22,5,22,0.00
2013-2-15,53.9,38.3,27.7,39.7,32.0,25.3,93,80,44,30.09,29.94,27,4,28,0.01
2013-2-16,32.7,29.2,22.5,29.8,24.0,13.9,93,82,55,30.02,29.87,34,10,34,0.00
2013-2-17,33.7,26.2,19.9,16.6,12.6,9.7,70,57,41,30.27,30.02,36,11,40,0.00
2013-2-18,52.2,35.9,18.6,28.5,21.0,12.7,82,57,38,30.38,30.10,35,8,36,0.00
2013-2-19,50.9,41.3,32.8,42.6,28.2,15.6,92,62,34,30.10,29.84,37,12,39,0.03
2013-2-20,42.2,33.6,27.5,18.7,13.8,3.3,61,45,24,30.17,30.05,28,10,28,0.00
2013-2-21,59.4,40.0,22.7,36.0,18.0,-1.9,88,47,11,30.23,30.04,26,4,26,0.15
2013-2-22,44.3,39.3,35.3,40.7,36.6,33.2,94,90,81,30.19,30.03,26,8,28,0.25
2013-2-23,53.1,45.7,39.8,50.2,43.6,38.1,96,93,88,30.05,29.80,13,2,13,0.20
2013-2-24,51.1,43.4,34.8,42.8,32.0,24.6,92,67,38,30.03,29.83,25,8,25,0.00
2013-2-25,47.6,37.3,27.9,31.0,27.5,24.8,91,69,48,30.09,29.95,31,8,33,0.00
2013-2-26,42.2,37.8,33.1,40.0,35.8,30.8,94,93,82,29.95,29.50,35,11,35,0.37
2013-2-27,50.9,41.4,36.2,37.6,34.1,30.0,92,76,57,29.79,29.63,31,8,31,0.02
2013-2-28,36.4,33.0,31.0,34.0,28.1,25.3,92,82,74,29.93,29.71,28,10,28,0.01
2013-3-1,37.9,32.6,29.8,32.6,29.5,26.8,94,88,76,29.95,29.90,19,7,19,0.01
2013-3-2,38.9,31.1,26.0,31.8,28.0,21.5,93,88,68,29.98,29.87,25,8,28,0.00
2013-3-3,29.9,25.9,22.7,22.7,19.2,16.7,88,76,62,30.08,29.96,24,10,24,0.00
2013-3-4,49.6,35.7,23.6,23.8,19.2,15.6,77,54,27,30.18,30.04,21,5,21,0.00
2013-3-5,45.4,38.2,32.6,44.1,33.4,21.5,95,84,51,30.05,29.62,40,4,43,0.82
2013-3-6,32.9,28.2,25.5,29.4,25.5,22.5,92,90,83,30.21,29.70,37,14,37,0.00
2013-3-7,36.4,30.4,27.5,31.5,26.5,24.3,92,85,78,30.33,30.21,23,9,24,0.01
2013-3-8,46.6,35.1,24.2,32.1,26.8,21.8,91,73,51,30.39,30.27,21,7,22,0.00
2013-3-9,63.5,44.8,26.1,32.8,28.0,23.2,91,58,26,30.34,30.18,23,5,25,0.00
2013-3-10,64.0,53.5,43.8,37.7,33.5,29.2,65,47,34,30.20,30.03,29,11,38,0.00
2013-3-11,54.2,51.5,49.2,50.6,46.9,36.1,94,85,53,30.06,29.75,43,14,44,0.61
2013-3-12,52.2,41.9,34.4,50.5,37.7,31.3,100,85,66,30.03,29.73,32,10,32,0.17
2013-3-13,44.2,35.8,28.7,33.2,27.0,17.8,92,71,51,30.21,30.02,32,10,32,0.00
2013-3-14,42.2,32.5,24.1,21.7,18.6,15.8,74,58,36,30.33,30.21,30,10,34,0.00
2013-3-15,67.5,48.1,31.6,42.2,31.9,17.8,75,55,27,30.23,29.89,29,4,29,0.00
2013-3-16,74.0,61.3,49.0,51.1,45.6,40.9,76,58,39,29.88,29.68,25,6,25,0.00
2013-3-17,72.4,62.0,51.3,51.3,47.7,41.4,81,61,33,29.86,29.73,25,5,25,0.00
2013-3-18,50.9,44.2,40.6,45.5,41.3,38.2,95,90,81,29.93,29.77,31,10,37,0.55
2013-3-19,53.8,44.6,36.4,43.3,31.8,15.0,95,65,34,30.07,29.82,33,9,34,0.02
2013-3-20,51.2,39.4,28.9,31.0,19.0,13.4,93,46,26,30.09,29.82,33,7,34,0.00
2013-3-21,34.2,27.5,20.5,28.0,17.2,13.0,93,66,45,29.99,29.82,28,10,28,0.00
2013-3-22,44.2,33.2,19.3,25.3,18.2,13.3,83,56,31,30.07,29.99,17,3,17,0.00
2013-3-23,52.6,43.1,35.6,44.4,35.3,24.8,89,74,57,30.03,29.80,23,3,23,0.01
2013-3-24,47.9,42.7,38.5,43.8,40.3,36.9,98,91,82,29.86,29.43,28,8,28,0.83
2013-3-25,38.5,33.1,29.3,36.9,27.3,23.3,94,79,65,29.92,29.49,32,11,32,0.02
2013-3-26,35.2,30.1,27.3,33.1,27.4,24.5,93,90,82,30.23,29.91,32,11,32,0.02
2013-3-27,40.6,33.0,29.3,29.9,26.8,23.4,92,78,60,30.32,30.21,24,9,26,0.02
2013-3-28,48.7,36.9,24.8,30.1,24.7,21.5,89,64,41,30.33,30.24,28,6,28,0.00
2013-3-29,54.3,37.6,25.6,38.2,30.2,22.4,94,77,34,30.34,30.24,22,3,22,0.12
2013-3-30,60.7,48.4,38.4,46.8,40.7,36.8,95,77,51,30.24,29.98,14,2,14,0.21
2013-3-31,60.5,51.5,46.3,53.3,48.3,41.3,95,89,64,29.99,29.79,18,2,18,0.49
2013-4-1,60.3,49.7,39.6,49.0,43.3,32.7,96,80,57,29.98,29.83,25,6,25,0.01
2013-4-2,52.2,44.0,35.4,33.7,27.2,19.6,73,53,31,30.14,29.97,25,8,25,0.00
2013-4-3,57.1,44.8,32.7,30.9,24.1,19.3,68,45,29,30.24,30.13,19,4,20,0.00
2013-4-4,47.5,38.9,34.0,35.5,30.8,18.7,94,76,35,30.20,29.95,27,5,27,0.60
2013-4-5,54.9,44.5,36.6,46.4,38.6,34.9,95,81,56,30.07,29.94,22,6,22,0.00
2013-4-6,66.0,50.5,32.2,42.2,35.8,30.3,94,63,31,30.20,30.06,27,7,29,0.00
2013-4-7,69.3,58.3,46.8,47.5,41.4,34.1,74,54,41,30.13,29.98,25,9,26,0.00
2013-4-8,74.8,61.6,46.5,54.9,49.0,42.1,86,65,47,30.08,29.94,30,6,30,0.00
2013-4-9,80.8,66.8,49.9,58.5,53.8,46.8,91,65,44,30.12,29.98,22,6,23,0.00
2013-4-10,84.5,69.1,52.4,59.8,55.4,49.3,91,64,39,30.02,29.83,29,6,29,0.00
2013-4-11,76.0,67.5,60.7,61.8,56.8,53.9,93,70,48,29.85,29.60,33,10,33,1.46
2013-4-12,62.1,57.7,50.5,58.9,50.8,39.1,94,79,53,29.85,29.52,28,9,29,0.40
2013-4-13,66.3,55.0,44.9,44.0,39.2,33.1,77,57,35,30.01,29.85,26,8,29,0.00
2013-4-14,68.8,55.4,39.9,49.5,42.2,36.6,90,64,36,30.05,29.90,34,9,34,0.00
2013-4-15,71.3,59.0,51.1,57.8,53.2,48.3,94,82,60,30.11,29.90,30,7,30,0.01
2013-4-16,79.8,66.1,55.7,60.5,57.0,53.1,92,74,46,30.19,30.07,21,7,22,0.00
2013-4-17,72.8,64.5,59.1,63.4,59.0,55.2,94,83,63,30.16,30.03,18,4,18,0.16
2013-4-18,73.2,66.6,59.8,62.0,58.4,54.9,89,76,53,30.03,29.80,36,12,43,0.00
2013-4-19,67.2,57.9,42.7,62.5,54.4,36.0,94,88,78,29.91,29.61,41,16,41,0.74
2013-4-20,55.9,45.5,34.8,38.7,34.0,29.6,85,65,45,30.26,29.91,28,8,28,0.00
2013-4-21,61.4,47.5,31.5,39.1,34.6,29.3,94,64,35,30.40,30.26,27,5,28,0.00
2013-4-22,65.8,52.1,37.8,44.3,38.7,34.1,88,62,36,30.35,30.12,20,5,20,0.00
2013-4-23,72.2,55.9,37.8,47.8,40.0,30.9,91,57,34,30.21,30.00,26,6,27,0.00
2013-4-24,72.7,59.0,47.2,58.7,50.4,44.4,92,75,49,30.07,29.90,31,7,31,0.01
2013-4-25,62.2,50.7,39.8,45.1,37.4,25.6,93,65,27,30.30,30.07,27,7,27,0.00
2013-4-26,68.0,52.8,34.6,48.2,37.8,31.4,91,60,34,30.38,30.22,19,4,20,0.01
2013-4-27,53.5,51.1,49.6,51.1,49.0,47.2,94,92,87,30.32,30.17,21,4,21,0.50
2013-4-28,52.2,50.1,46.4,50.8,48.1,44.1,95,93,82,30.18,29.93,31,6,31,1.03
2013-4-29,71.3,58.7,50.4,59.1,53.0,49.0,96,83,59,30.02,29.87,14,3,15,0.01
2013-4-30,75.5,62.3,50.4,60.1,54.5,48.5,95,78,49,30.07,29.92,23,4,23,0.00
2013-5-1,68.3,59.8,52.2,55.8,53.2,49.9,93,80,60,30.18,30.07,20,6,21,0.00
2013-5-2,67.1,58.4,53.9,58.4,53.2,50.8,92,83,68,30.19,30.12,30,10,30,0.00
2013-5-3,63.1,57.3,50.9,54.1,50.0,46.4,93,77,62,30.14,29.98,32,10,32,0.00
2013-5-4,59.9,53.3,47.9,51.1,46.6,38.9,93,78,67,29.99,29.86,34,12,36,0.07
2013-5-5,50.6,49.1,46.9,48.8,47.3,45.0,95,93,91,29.90,29.76,18,4,19,1.11
2013-5-6,65.0,56.1,49.5,53.6,47.9,40.5,95,76,43,29.84,29.73,28,7,31,0.04
2013-5-7,66.7,53.9,41.5,54.8,48.0,39.8,95,82,54,29.91,29.80,24,3,24,0.00
2013-5-8,67.3,56.9,51.4,59.2,53.7,49.6,95,89,69,30.00,29.87,16,2,17,0.09
2013-5-9,74.7,61.6,50.1,62.7,53.8,48.7,96,78,50,30.07,29.97,20,3,20,0.01
2013-5-10,78.4,63.8,50.3,61.9,56.6,48.1,94,79,51,30.05,29.87,14,2,14,0.00
2013-5-11,72.2,62.4,55.8,63.0,58.9,52.6,94,88,69,29.90,29.76,24,2,24,0.09
2013-5-12,59.0,53.3,46.9,52.5,43.3,33.3,92,71,46,30.05,29.85,26,6,26,0.00
2013-5-13,59.1,49.5,37.2,40.5,35.5,32.5,86,60,41,30.17,30.05,25,5,25,0.00
2013-5-14,75.5,56.6,36.7,50.8,42.6,32.3,92,62,38,30.23,30.02,16,3,16,0.00
2013-5-15,81.1,67.0,49.2,63.4,54.2,46.6,92,66,43,30.08,29.91,22,4,24,0.00
2013-5-16,75.2,65.8,55.7,60.7,56.0,51.3,87,72,52,29.98,29.90,16,3,16,0.00
2013-5-17,80.0,66.6,53.7,62.3,56.9,51.3,93,73,49,30.04,29.93,23,4,23,0.00
2013-5-18,69.0,64.3,59.8,64.1,60.3,56.3,94,87,70,30.01,29.95,21,6,21,0.51
2013-5-19,76.8,65.7,61.6,68.4,62.5,59.6,94,90,71,30.04,29.92,23,3,23,0.15
2013-5-20,81.0,69.6,60.4,69.1,63.9,59.0,95,83,59,30.05,29.92,18,2,18,0.00
2013-5-21,85.7,70.4,58.8,70.5,63.2,57.1,95,80,51,29.99,29.83,21,2,21,0.00
2013-5-22,80.5,67.1,58.6,68.0,62.0,56.6,94,85,58,29.91,29.78,27,4,27,0.44
2013-5-23,77.8,66.1,59.1,65.4,60.0,54.6,95,82,51,29.89,29.77,21,4,21,0.10
2013-5-24,62.9,57.6,49.5,54.9,48.4,39.1,93,73,50,30.19,29.88,30,8,30,0.00
2013-5-25,70.3,56.2,38.6,48.8,43.0,36.1,93,64,34,30.30,30.14,24,4,26,0.00
2013-5-26,71.2,60.5,51.7,53.9,49.5,44.9,90,69,46,30.22,30.13,19,3,20,0.00
2013-5-27,79.4,65.4,48.9,61.7,55.1,46.8,93,71,51,30.21,30.04,26,5,26,0.00
2013-5-28,82.1,70.0,57.6,65.5,59.9,55.1,92,72,47,30.12,30.02,29,6,29,0.00
2013-5-29,84.4,71.9,59.1,64.7,60.6,56.8,93,70,41,30.14,30.03,21,5,25,0.00
2013-5-30,82.2,70.6,57.5,65.1,60.9,55.1,94,73,49,30.18,30.05,26,6,26,0.00
2013-5-31,81.4,71.5,59.4,65.0,61.1,56.9,93,71,50,30.12,30.00,27,8,27,0.00
2013-6-1,81.6,72.9,62.7,67.1,62.8,59.5,91,72,51,30.03,29.90,38,8,38,0.00
2013-6-2,69.8,66.0,64.7,65.4,63.8,62.8,94,93,85,29.95,29.82,20,3,20,0.52
2013-6-3,77.8,69.3,62.8,67.8,63.5,60.1,95,83,63,29.90,29.80,22,3,26,0.00
2013-6-4,81.2,69.0,57.1,66.3,61.1,55.4,95,78,52,29.99,29.89,17,3,19,0.00
2013-6-5,80.5,69.4,59.7,68.9,63.4,57.7,94,82,64,30.01,29.84,27,6,27,0.38
2013-6-6,78.7,69.3,63.4,69.8,65.4,61.6,95,88,71,29.90,29.68,17,4,17,0.03
2013-6-7,78.4,68.5,62.4,70.8,65.3,60.3,95,90,73,29.76,29.61,19,3,19,0.74
2013-6-8,77.7,67.2,58.0,68.6,62.2,56.3,95,85,64,30.02,29.76,13,2,13,0.35
2013-6-9,79.0,66.9,58.7,72.1,63.8,57.0,95,90,71,30.08,29.94,29,4,29,0.68
2013-6-10,79.2,70.2,65.0,68.9,64.5,59.8,95,83,57,29.96,29.81,17,6,18,0.36
2013-6-11,79.2,70.6,62.6,68.0,64.1,60.8,94,81,60,29.95,29.86,21,4,21,0.08
2013-6-12,86.5,74.2,61.6,76.1,68.2,59.9,94,82,64,29.97,29.85,23,3,23,0.00
2013-6-13,88.9,71.5,63.0,72.8,66.4,61.1,95,85,52,29.85,29.63,31,3,31,0.11
2013-6-14,77.2,67.1,56.6,63.3,58.6,54.6,94,76,51,30.00,29.76,18,3,18,0.00
2013-6-15,82.4,67.9,52.4,64.5,58.6,50.4,94,74,49,30.09,29.98,14,1,14,0.00
2013-6-16,82.2,71.4,59.5,69.0,64.2,57.6,94,79,57,30.06,29.93,11,1,11,0.00
2013-6-17,79.5,71.3,65.6,70.9,67.1,63.8,94,87,67,29.96,29.85,14,2,15,0.02
2013-6-18,73.3,67.7,62.6,70.0,65.4,60.8,96,93,87,29.89,29.73,16,2,16,0.14
2013-6-19,80.8,68.0,56.8,68.7,62.3,55.4,96,83,59,30.05,29.87,15,1,15,0.01
2013-6-20,82.3,69.4,58.8,69.0,63.5,57.1,95,83,60,30.14,30.04,19,3,20,0.00
2013-6-21,83.2,71.4,60.9,68.1,63.4,59.0,94,77,53,30.18,30.08,14,3,14,0.00
2013-6-22,84.7,70.8,56.3,66.1,61.1,54.4,94,74,45,30.17,30.02,16,2,16,0.00
2013-6-23,84.2,71.3,59.9,69.8,64.1,57.9,94,79,52,30.14,30.03,14,2,14,0.00
2013-6-24,85.5,72.6,63.5,74.4,67.2,61.6,95,85,54,30.14,30.00,13,2,13,0.01
2013-6-25,85.0,72.7,62.9,71.7,67.3,61.1,94,84,59,30.07,29.93,14,1,14,0.00
2013-6-26,82.7,72.1,63.8,74.4,68.4,62.0,96,88,71,29.98,29.82,14,2,14,0.08
2013-6-27,81.7,70.4,63.9,74.4,67.5,62.1,95,91,76,29.87,29.71,24,2,24,0.23
2013-6-28,84.8,72.6,65.3,74.2,67.6,63.8,96,85,60,29.76,29.55,18,2,18,0.39
2013-6-29,81.2,70.1,62.3,70.0,62.9,59.0,96,80,51,29.65,29.57,17,2,17,0.01
2013-6-30,86.0,69.7,57.2,67.2,61.9,55.4,95,79,47,29.73,29.63,23,2,25,0.33
2013-7-1,82.8,70.0,64.7,70.0,65.4,62.8,95,86,60,29.87,29.71,21,4,21,0.74
2013-7-2,83.5,71.2,63.8,71.1,66.1,62.0,96,85,59,30.03,29.85,25,6,25,0.04
2013-7-3,75.1,66.8,62.0,71.3,64.6,60.6,95,93,87,30.15,30.00,19,4,21,2.27
2013-7-4,77.1,66.5,61.7,72.1,64.8,60.3,96,94,81,30.16,30.08,30,4,30,1.12
2013-7-5,81.5,71.3,67.1,70.2,66.6,65.0,94,86,62,30.15,30.07,34,10,34,0.02
2013-7-6,81.2,71.8,65.5,71.9,67.7,63.8,95,88,68,30.11,30.00,30,8,37,0.80
2013-7-7,80.0,71.2,68.1,72.9,68.6,66.5,95,92,76,30.08,30.01,14,3,15,0.54
2013-7-8,83.8,73.6,66.6,72.1,68.1,65.0,96,84,60,30.12,30.02,13,1,14,0.02
2013-7-9,90.5,74.1,63.9,73.6,67.5,62.1,95,82,48,30.09,29.95,25,2,26,0.00
2013-7-10,85.3,72.1,65.1,76.2,68.3,63.3,95,88,65,30.04,29.87,14,2,14,0.19
2013-7-11,80.3,71.5,66.1,73.5,68.2,64.4,96,90,75,29.90,29.80,11,1,12,0.01
2013-7-12,82.5,72.2,62.7,72.9,67.1,60.3,96,85,63,29.92,29.80,16,2,16,0.05
2013-7-13,79.1,69.2,60.1,69.5,64.3,58.4,96,85,69,30.03,29.91,24,4,24,0.07
2013-7-14,73.3,69.1,66.4,70.6,67.0,64.3,95,93,88,30.19,30.02,23,4,26,0.77
2013-7-15,85.0,73.5,64.5,72.4,66.9,63.0,96,81,56,30.26,30.17,17,4,18,0.01
2013-7-16,87.9,73.3,62.8,76.1,68.5,60.8,94,86,61,30.26,30.16,19,1,20,0.01
2013-7-17,87.3,72.3,65.6,77.6,69.4,64.1,96,91,70,30.22,30.10,15,1,17,0.96
2013-7-18,87.8,72.3,66.8,76.5,68.9,65.2,95,90,64,30.15,30.00,21,1,21,0.25
2013-7-19,88.0,74.8,66.7,77.1,69.8,64.9,96,85,62,30.06,29.88,27,1,27,0.00
2013-7-20,83.1,73.5,66.8,75.0,69.8,65.0,95,88,73,29.96,29.85,14,1,14,0.00
2013-7-21,80.9,71.7,67.0,74.6,68.7,65.2,95,90,76,29.94,29.86,21,1,21,0.17
2013-7-22,84.8,72.6,65.0,73.9,68.0,63.3,96,86,63,29.93,29.73,22,1,22,0.25
2013-7-23,82.1,72.1,65.6,73.1,68.0,63.8,95,88,69,29.83,29.72,15,3,16,0.08
2013-7-24,82.2,71.7,65.4,73.1,67.6,63.9,96,87,69,29.80,29.72,19,2,19,0.00
2013-7-25,82.4,71.3,64.0,69.7,64.9,61.1,95,82,51,29.97,29.79,20,2,20,0.01
2013-7-26,85.0,70.9,58.0,70.8,64.6,56.3,95,82,58,30.02,29.91,20,4,20,0.00
2013-7-27,80.0,70.6,66.0,71.4,66.6,63.9,94,88,68,29.95,29.80,17,1,17,0.19
2013-7-28,78.3,70.6,63.5,70.4,65.6,61.1,95,85,66,29.97,29.83,17,3,17,0.00
2013-7-29,79.2,67.5,57.7,65.7,60.0,56.0,95,79,51,30.15,29.96,15,2,16,0.00
2013-7-30,80.0,67.6,55.4,68.5,61.2,53.4,93,81,56,30.18,30.08,11,1,11,0.00
2013-7-31,74.3,68.2,63.6,70.2,65.6,61.8,94,91,85,30.12,29.89,14,2,14,0.27
2013-8-1,80.5,71.9,66.4,74.1,68.1,64.1,96,88,73,29.92,29.83,18,2,19,0.01
2013-8-2,83.3,70.4,60.2,71.2,65.0,58.8,96,84,61,29.97,29.89,12,1,13,0.00
2013-8-3,81.0,71.0,61.9,70.9,66.0,60.1,95,85,63,29.97,29.90,16,2,16,0.00
2013-8-4,78.2,71.0,64.7,71.4,65.9,62.2,95,85,68,29.99,29.91,14,3,19,0.04
2013-8-5,85.0,71.3,60.0,70.9,64.1,58.3,95,80,56,30.01,29.88,17,3,19,0.00
2013-8-6,87.0,72.3,63.9,71.6,66.3,61.3,94,82,57,29.95,29.88,18,2,18,0.03
2013-8-7,79.2,70.8,67.9,72.3,68.0,65.8,94,91,78,29.97,29.92,25,5,25,0.19
2013-8-8,83.1,71.4,66.1,74.5,68.6,64.5,96,91,73,29.99,29.92,21,2,21,0.64
2013-8-9,82.8,72.8,67.2,75.1,69.9,65.7,96,91,75,30.01,29.94,16,1,16,0.09
2013-8-10,83.3,71.6,67.5,76.9,69.2,65.8,96,92,74,30.06,29.98,25,1,26,1.46
2013-8-11,82.9,71.9,66.3,75.7,69.1,65.0,96,91,74,30.10,29.99,22,1,23,0.26
2013-8-12,83.7,72.2,67.0,75.8,69.4,65.5,96,91,71,30.04,29.91,9,0,10,0.03
2013-8-13,80.3,71.9,68.3,74.6,69.0,66.2,96,91,78,29.91,29.78,25,2,25,0.24
2013-8-14,74.1,67.1,61.1,66.3,62.5,58.2,94,86,69,30.00,29.82,13,3,14,0.01
2013-8-15,74.0,64.0,56.6,63.8,58.6,54.6,94,83,65,30.07,29.99,22,5,23,0.00
2013-8-16,77.7,65.9,58.2,63.2,59.0,55.8,92,80,59,30.07,29.99,15,4,15,0.00
2013-8-17,72.1,64.2,59.7,63.6,60.1,57.1,94,87,74,30.11,30.04,21,4,21,0.15
2013-8-18,75.0,65.9,61.7,69.9,63.4,60.0,95,92,81,30.15,30.06,12,2,12,0.54
2013-8-19,75.9,68.1,63.9,69.6,65.3,62.4,95,91,77,30.12,30.01,11,2,11,0.39
2013-8-20,81.5,70.9,65.1,71.8,66.9,63.3,95,88,69,30.12,30.03,12,2,12,0.00
2013-8-21,76.5,70.4,64.7,71.3,67.2,62.8,94,90,80,30.15,30.05,11,2,11,0.00
2013-8-22,81.9,72.7,66.0,73.1,67.9,64.2,95,86,67,30.11,29.96,10,2,17,0.00
2013-8-23,81.4,70.1,63.4,74.0,66.7,61.6,96,89,74,30.02,29.92,13,2,13,0.01
2013-8-24,80.8,69.8,62.8,68.2,62.7,58.6,96,80,49,30.22,30.02,20,4,20,0.00
2013-8-25,80.7,67.0,53.9,63.6,58.9,51.8,93,77,49,30.33,30.19,15,3,15,0.00
2013-8-26,79.7,66.4,55.3,68.3,61.4,53.3,94,85,66,30.27,30.08,14,1,14,0.00
2013-8-27,80.1,68.3,57.9,72.3,64.7,56.2,95,89,76,30.11,29.98,14,1,14,0.00
2013-8-28,84.0,73.0,64.8,74.6,68.5,62.7,95,86,70,30.01,29.89,15,2,16,0.00
2013-8-29,84.5,75.9,69.7,76.3,71.1,67.0,93,85,73,29.92,29.83,24,4,24,0.37
2013-8-30,84.7,74.4,66.7,74.0,69.6,64.8,95,86,66,29.95,29.84,19,4,19,0.00
2013-8-31,83.0,73.2,67.5,75.6,69.2,65.4,94,88,72,29.89,29.78,15,2,17,0.00
2013-9-1,87.5,72.0,67.1,75.3,68.6,65.0,95,89,64,29.84,29.75,31,1,31,0.17
2013-9-2,81.4,71.8,65.1,73.8,68.1,63.3,95,89,74,29.86,29.76,16,2,16,0.00
2013-9-3,78.8,69.9,61.9,71.2,65.5,59.9,94,86,69,29.94,29.79,25,3,25,0.38
2013-9-4,81.7,68.5,59.6,70.2,63.4,57.9,95,85,60,30.07,29.94,17,1,17,0.01
2013-9-5,79.8,67.1,58.3,69.4,61.9,56.3,95,84,61,30.10,30.03,13,2,13,0.00
2013-9-6,82.8,67.4,54.9,66.5,60.2,53.1,95,80,50,30.13,30.00,14,1,14,0.00
2013-9-7,79.5,67.2,58.2,68.1,62.2,56.2,95,85,63,30.07,29.94,17,2,17,0.01
2013-9-8,79.5,68.8,59.2,71.6,64.6,57.2,94,87,72,29.97,29.89,13,1,13,0.00
2013-9-9,85.9,72.0,62.2,72.0,65.8,60.2,95,82,57,30.07,29.96,21,3,21,0.00
2013-9-10,88.2,72.4,61.7,70.4,65.4,59.7,94,80,50,30.17,30.06,16,2,16,0.00
2013-9-11,84.0,71.2,61.3,73.4,66.6,59.3,94,86,66,30.17,30.02,15,1,15,0.07
2013-9-12,79.3,69.6,64.5,73.0,66.5,62.3,95,90,78,30.05,29.81,24,2,25,0.98
2013-9-13,74.2,65.6,56.1,66.5,60.1,52.6,95,83,58,29.89,29.78,19,3,20,0.07
2013-9-14,74.8,60.0,48.9,60.2,53.5,47.0,94,81,50,30.06,29.88,11,1,11,0.00
2013-9-15,77.3,63.9,51.7,63.6,57.6,49.7,93,81,58,30.15,30.04,18,4,31,0.00
2013-9-16,77.0,64.2,53.3,66.6,59.3,51.3,95,85,63,30.11,30.04,16,2,17,0.01
2013-9-17,71.3,63.5,59.1,59.6,57.1,55.3,92,80,62,30.21,30.11,20,5,20,0.00
2013-9-18,67.2,61.8,56.8,60.1,56.9,53.0,92,84,72,30.20,30.11,17,3,17,0.01
2013-9-19,76.4,66.7,60.3,67.7,62.4,58.3,93,87,71,30.13,30.01,16,1,16,0.00
2013-9-20,81.1,68.9,60.5,68.9,63.5,58.8,95,84,59,30.03,29.84,14,1,14,0.00
2013-9-21,67.6,63.1,60.2,64.5,60.8,58.3,94,92,89,29.85,29.66,24,4,24,0.59
2013-9-22,70.3,60.6,53.9,60.5,56.0,51.9,95,85,68,29.88,29.72,15,3,15,0.03
2013-9-23,77.6,60.5,48.5,61.8,54.8,46.6,95,83,54,30.00,29.88,10,1,10,0.00
2013-9-24,78.7,63.0,51.8,63.4,57.4,49.5,94,83,53,30.02,29.85,19,2,19,0.01
2013-9-25,64.2,61.3,59.2,61.8,59.0,57.0,94,92,90,29.87,29.78,14,3,14,0.48
2013-9-26,73.5,63.1,57.0,65.2,58.8,54.6,95,86,66,29.99,29.83,17,2,18,0.00
2013-9-27,74.5,61.8,53.7,62.5,56.7,51.7,95,84,63,30.12,29.99,8,0,8,0.00
2013-9-28,74.3,61.6,52.4,61.0,55.9,50.1,93,82,60,30.19,30.06,15,2,15,0.00
2013-9-29,71.6,60.5,52.1,60.9,55.2,49.7,92,83,63,30.10,29.96,17,3,17,0.00
2013-9-30,74.8,63.5,55.7,61.6,57.2,53.3,93,81,52,30.03,29.93,13,1,13,0.00
2013-10-1,76.0,62.8,54.3,63.2,57.8,52.3,94,85,63,30.11,30.00,13,1,15,0.00
2013-10-2,77.8,63.1,53.3,65.8,58.0,51.3,95,85,58,30.14,30.03,9,1,10,0.00
2013-10-3,79.5,65.1,55.4,65.4,59.5,53.2,94,83,57,30.10,30.00,9,1,9,0.00
2013-10-4,82.4,66.6,55.8,66.8,60.6,53.8,94,82,54,30.12,30.02,8,1,9,0.00
2013-10-5,84.0,67.3,56.7,68.6,61.2,54.6,95,82,52,30.10,29.95,17,2,17,0.00
2013-10-6,79.9,67.8,58.5,67.4,61.4,56.5,94,81,55,29.98,29.79,27,7,27,0.01
2013-10-7,68.4,57.9,49.2,63.7,54.3,47.0,93,88,71,30.01,29.73,23,5,23,0.85
2013-10-8,70.9,54.8,44.4,55.4,48.7,42.8,95,82,53,30.16,30.00,17,3,17,0.00
2013-10-9,72.2,57.1,44.9,60.0,51.1,43.0,95,82,60,30.19,30.06,11,1,11,0.00
2013-10-10,69.0,57.1,45.2,58.4,51.0,43.3,98,82,59,30.09,29.99,21,3,21,0.01
2013-10-11,73.2,59.8,46.3,60.0,53.5,44.3,94,81,59,30.03,29.93,18,2,18,0.00
2013-10-12,74.0,61.9,53.2,62.1,56.8,50.9,93,84,66,30.05,29.95,17,2,17,0.00
2013-10-13,71.2,64.2,59.3,64.4,60.3,57.0,93,87,77,30.14,30.05,13,2,15,0.00
2013-10-14,73.5,63.5,56.1,63.8,58.7,54.1,94,85,67,30.17,30.05,18,2,18,0.00
2013-10-15,70.8,60.6,52.4,60.8,55.8,50.3,93,85,67,30.12,29.98,14,3,14,0.00
2013-10-16,71.2,60.6,51.8,60.0,55.6,49.8,93,84,66,30.01,29.90,13,2,13,0.00
2013-10-17,72.8,61.3,53.0,65.8,58.4,50.3,95,90,77,29.91,29.75,23,4,23,0.03
2013-10-18,66.5,55.0,46.5,52.5,48.8,44.6,95,81,55,29.99,29.88,13,3,13,0.00
2013-10-19,61.1,54.4,49.5,55.4,50.0,46.2,93,85,66,29.93,29.81,21,3,21,0.00
2013-10-20,63.1,50.0,39.5,46.3,39.7,31.5,93,71,33,30.05,29.92,13,2,13,0.00
2013-10-21,69.4,51.7,36.4,52.9,45.3,34.3,94,81,48,30.12,29.95,17,2,17,0.00
2013-10-22,66.0,55.5,49.1,53.4,49.3,47.1,94,81,54,29.99,29.77,18,3,18,0.00
2013-10-23,53.6,46.0,36.3,48.0,38.9,29.8,92,77,58,30.03,29.70,27,6,27,0.00
2013-10-24,49.6,40.5,31.4,39.2,34.2,28.6,92,79,61,30.19,30.03,17,2,18,0.01
2013-10-25,44.9,36.8,29.7,37.0,29.3,25.6,89,75,55,30.38,30.19,21,5,21,0.00
2013-10-26,58.9,40.3,24.5,39.5,30.4,22.2,92,71,37,30.35,30.09,12,1,12,0.00
2013-10-27,64.3,54.5,47.4,50.9,45.0,38.8,85,71,58,30.11,30.01,18,4,18,0.00
2013-10-28,61.1,53.7,47.1,55.7,50.4,44.6,94,89,75,30.22,30.07,7,1,7,0.02
2013-10-29,68.7,57.8,49.4,54.8,50.5,47.5,94,78,53,30.30,30.18,12,1,12,0.00
2013-10-30,73.5,61.3,53.3,58.3,53.7,49.6,90,77,57,30.23,30.09,13,1,13,0.00
2013-10-31,64.7,60.3,53.1,59.9,55.2,50.5,92,83,72,30.10,29.68,40,10,41,0.00
2013-11-1,71.3,63.2,54.1,60.2,54.9,46.6,92,75,55,29.73,29.57,34,7,34,0.10
2013-11-2,59.7,49.9,42.6,47.3,43.1,38.3,89,78,57,30.00,29.70,28,4,32,0.01
2013-11-3,55.2,45.8,36.1,41.9,38.0,32.8,91,75,51,30.32,30.00,15,5,16,0.00
2013-11-4,58.2,44.8,32.6,38.1,33.3,29.7,90,67,40,30.46,30.32,22,7,22,0.00
2013-11-5,61.9,46.6,35.2,38.1,34.0,29.6,88,64,33,30.49,30.36,17,4,17,0.00
2013-11-6,68.1,54.7,43.7,53.5,47.6,35.0,91,78,59,30.38,30.07,26,7,26,0.00
2013-11-7,55.4,48.2,37.9,51.8,44.1,31.3,93,86,73,30.18,29.96,25,6,25,0.06
2013-11-8,49.6,40.2,31.7,32.6,27.8,24.5,81,63,40,30.33,30.18,22,6,22,0.00
2013-11-9,54.6,41.0,28.8,34.2,29.4,24.3,84,65,39,30.35,30.21,13,2,13,0.00
2013-11-10,61.4,49.9,39.4,42.5,33.6,26.8,69,54,37,30.27,30.17,28,7,28,0.00
2013-11-11,63.5,46.1,29.6,34.2,29.3,20.0,84,55,24,30.31,30.13,12,2,12,0.00
2013-11-12,50.5,37.4,24.2,39.9,28.3,15.0,88,70,54,30.48,30.07,29,8,29,0.00
2013-11-13,38.9,28.5,20.2,22.5,19.2,15.2,85,69,50,30.60,30.47,19,6,19,0.00
2013-11-14,58.6,37.7,20.3,27.3,20.1,15.9,89,56,20,30.50,30.29,14,1,14,0.00
2013-11-15,44.6,37.6,28.1,43.0,30.9,19.8,94,78,53,30.32,30.17,12,1,12,0.11
2013-11-16,63.7,51.6,44.2,56.1,48.7,42.6,95,90,74,30.25,30.12,21,4,21,0.00
2013-11-17,62.9,58.1,55.3,57.0,54.9,52.1,93,89,80,30.13,29.81,31,12,32,0.17
2013-11-18,59.5,53.9,44.0,56.3,43.4,31.6,94,69,45,30.02,29.78,34,9,34,0.03
2013-11-19,50.4,41.8,35.3,32.3,28.9,26.9,73,61,42,30.19,30.01,26,6,26,0.00
2013-11-20,51.6,41.9,35.0,31.4,28.6,26.5,76,60,41,30.39,30.18,24,9,24,0.00
2013-11-21,52.3,44.6,35.3,49.3,39.7,27.8,93,83,70,30.45,30.33,17,3,17,0.00
2013-11-22,64.3,55.1,48.9,58.5,52.3,47.2,95,91,80,30.35,30.10,15,2,15,0.01
2013-11-23,54.9,43.8,30.6,52.6,40.2,22.3,93,87,69,30.24,30.07,32,9,32,0.00
2013-11-24,32.1,25.8,20.2,22.2,13.9,8.7,75,61,44,30.51,30.24,31,9,31,0.00
2013-11-25,39.9,29.6,19.3,28.5,14.1,9.9,81,54,32,30.52,30.29,17,4,18,0.00
2013-11-26,43.2,38.5,32.3,41.9,36.7,28.1,95,93,79,30.29,29.66,27,3,27,1.62
2013-11-27,40.5,28.8,23.1,38.9,26.0,17.8,94,89,80,30.24,29.65,30,12,34,0.08
2013-11-28,44.0,28.4,17.1,29.3,21.5,14.7,91,76,50,30.49,30.24,22,3,22,0.03
2013-11-29,50.9,34.8,23.0,33.0,26.6,20.5,92,73,48,30.58,30.46,11,3,11,0.00
2013-11-30,49.1,35.9,27.8,30.4,26.1,23.4,85,69,45,30.57,30.34,15,5,16,0.00
2013-12-1,54.2,37.8,25.2,37.4,29.7,22.4,91,74,49,30.34,30.01,14,2,14,0.00
2013-12-2,53.6,41.5,31.5,41.5,35.8,28.3,91,81,60,30.02,29.79,8,1,8,0.00
2013-12-3,58.4,49.1,40.6,50.4,44.8,38.2,92,85,73,29.90,29.80,21,4,22,0.00
2013-12-4,66.6,55.2,47.3,56.7,50.9,44.8,92,86,70,29.99,29.87,20,5,20,0.00
2013-12-5,72.4,60.0,51.0,62.1,56.0,48.2,93,87,68,30.02,29.89,19,4,19,0.12
2013-12-6,70.2,62.0,48.6,63.6,58.9,46.6,96,90,78,30.00,29.81,37,8,37,0.41
2013-12-7,48.7,39.8,37.1,46.8,37.7,35.4,94,92,88,30.34,29.96,30,7,30,0.01
2013-12-8,42.1,38.9,36.6,39.7,36.7,35.0,95,92,87,30.32,30.15,30,10,30,0.15
2013-12-9,49.5,43.9,38.1,47.7,42.2,36.5,95,94,92,30.16,30.00,16,3,16,0.15
2013-12-10,43.4,36.5,27.8,42.0,33.6,23.6,95,89,80,30.33,29.89,33,8,33,0.08
2013-12-11,46.3,32.7,20.0,30.1,23.1,18.1,93,71,40,30.47,30.31,22,4,22,0.15
2013-12-12,34.9,29.6,23.8,23.1,18.9,11.4,84,66,39,30.45,30.35,22,6,26,0.00
2013-12-13,48.9,32.8,18.6,27.4,20.5,15.3,98,64,31,30.41,30.23,7,1,7,0.08
2013-12-14,43.2,40.8,37.3,41.0,34.9,24.7,94,81,55,30.25,29.75,22,5,22,0.36
2013-12-15,43.3,34.0,28.3,42.0,31.7,25.5,95,91,87,30.13,29.75,36,9,36,0.01
2013-12-16,54.6,36.7,25.2,37.0,29.2,23.5,93,77,46,30.23,30.10,11,2,11,0.00
2013-12-17,55.0,40.7,28.4,39.3,31.7,24.0,92,72,42,30.15,29.92,29,5,34,0.01
2013-12-18,43.9,34.6,27.4,24.9,18.5,10.8,81,55,27,30.30,30.10,31,7,31,0.00
2013-12-19,54.2,39.9,24.2,34.6,25.5,16.8,84,58,41,30.34,30.17,15,2,15,0.00
2013-12-20,65.4,49.3,35.2,44.5,34.7,26.4,78,58,38,30.19,30.05,21,4,21,0.00
2013-12-21,64.7,59.0,48.2,61.0,55.0,39.8,91,87,72,30.08,29.83,44,12,44,0.00
2013-12-22,66.0,58.5,53.3,61.5,55.8,51.3,94,91,78,29.99,29.81,38,8,38,0.34
2013-12-23,53.3,44.4,32.8,51.3,42.3,30.8,94,92,89,30.22,29.93,21,8,25,0.08
2013-12-24,33.0,28.1,20.2,30.9,23.5,16.4,92,83,72,30.43,30.21,26,8,26,0.31
2013-12-25,40.1,27.0,16.4,24.4,17.7,14.2,92,71,41,30.51,30.36,16,3,16,0.10
2013-12-26,44.4,31.6,21.4,28.8,23.2,17.3,88,72,49,30.39,30.30,23,3,23,0.28
2013-12-27,45.2,29.8,21.6,29.2,23.3,19.4,92,78,47,30.48,30.36,5,1,9,0.00
2013-12-28,42.4,33.1,22.4,37.2,28.8,19.3,93,84,66,30.43,30.08,20,2,20,0.29
2013-12-29,49.2,42.2,39.0,45.8,39.5,36.1,95,90,84,30.07,29.82,28,7,28,0.13
2013-12-30,42.4,37.4,33.0,38.4,34.4,-99.9,93,89,84,30.16,29.97,19,2,20,0.00
2013-12-31,37.0,32.1,26.7,30.8,25.3,21.0,92,77,57,30.38,30.14,30,5,30,0.00
2014-1-1,46.7,33.3,22.9,33.4,25.6,20.3,91,75,48,30.38,30.11,24,4,24,0.00
2014-1-2,41.6,32.0,17.9,39.4,28.9,14.4,93,88,79,30.12,29.68,42,7,43,0.01